Simultaneous Nadir Overpasses (SNOs) Predictions

Prediction of SNOs between METOP-B and NOAA-19 Satellite Orbit:

Table of predicted SNOs for the next 14.0 days since TLE Epoch: 6/2/2017
Index Date (METOP-B) Time (METOP-B) Lat,Lon (METOP-B) SZA (METOP-B ) Date (NOAA-19) Time (NOAA-19) Lat,Lon (NOAA-19) SZA (NOAA-19 ) Distance(km) Time Diff (sec)
1 06/03/2017 20:37:23 -77.22, 55.46 125.20 06/03/2017 20:36:17 -77.23, 55.32 125.20 3.61 66
2 06/03/2017 21:28:04 77.19,-137.37 54.76 06/03/2017 21:27:14 77.22,-137.36 54.78 3.49 50
3 06/03/2017 22:18:45 -77.21, 30.04 125.23 06/03/2017 22:18:18 -77.21, 29.92 125.23 2.77 27
4 06/03/2017 23:09:26 77.17,-162.79 54.73 06/03/2017 23:09:15 77.19,-162.75 54.75 3.09 11
5 06/04/2017 00:00:07 -77.19, 4.62 125.26 06/04/2017 00:00:19 -77.18, 4.53 125.26 2.05 12
6 06/04/2017 00:50:48 77.15, 171.78 54.70 06/04/2017 00:51:16 77.17, 171.86 54.72 2.99 28
7 06/04/2017 01:41:29 -77.17, -20.81 125.29 06/04/2017 01:42:20 -77.16, -20.86 125.29 1.61 51
8 06/04/2017 02:32:10 77.13, 146.36 54.67 06/04/2017 02:33:17 77.14, 146.47 54.69 3.22 67
9 06/14/2017 14:14:27 77.51, -27.60 54.23 06/14/2017 14:13:18 77.52, -29.99 54.18 57.50 69
10 06/14/2017 15:05:15 -77.23, 138.49 126.08 06/14/2017 15:04:13 -77.23, 138.65 126.09 3.90 62
11 06/14/2017 15:55:55 77.23, -54.17 53.92 06/14/2017 15:55:13 77.25, -54.20 53.93 2.05 42
12 06/14/2017 16:46:37 -77.21, 113.07 126.11 06/14/2017 16:46:15 -77.25, 113.06 126.08 3.81 22
13 06/14/2017 17:37:17 77.21, -79.59 53.90 06/14/2017 17:37:14 77.23, -79.59 53.91 1.32 3
14 06/14/2017 18:27:59 -77.19, 87.64 126.13 06/14/2017 18:28:16 -77.22, 87.67 126.10 3.40 17
15 06/14/2017 19:18:39 77.19,-105.01 53.87 06/14/2017 19:19:15 77.20,-104.98 53.88 1.09 36
16 06/14/2017 20:09:21 -77.17, 62.22 126.16 06/14/2017 20:10:17 -77.20, 62.28 126.13 3.17 56
17 06/14/2017 21:00:02 77.13,-130.62 53.80 06/14/2017 21:01:16 77.18,-130.37 53.86 7.93 74




NCC Satellite Simultaneous Nadir Overpasses (SNOs) Prediction Service
